Year,Month,Day,Hour,Minute,Value (Times are PST for temperature in C)
2014,04,13,00,00,14.60
2014,04,13,00,01,14.50
2014,04,13,00,02,14.50
2014,04,13,00,03,14.50
2014,04,13,00,04,14.50
2014,04,13,00,05,14.40
2014,04,13,00,06,14.40
2014,04,13,00,07,14.40
2014,04,13,00,08,14.40
2014,04,13,00,09,14.40
2014,04,13,00,10,14.40
2014,04,13,00,11,14.40
2014,04,13,00,12,14.40
2014,04,13,00,13,14.40
2014,04,13,00,16,14.30
2014,04,13,00,17,14.30
2014,04,13,00,18,14.30
2014,04,13,00,19,14.30
2014,04,13,00,20,14.30
2014,04,13,00,21,14.20
2014,04,13,00,22,14.20
2014,04,13,00,23,14.10
2014,04,13,00,24,14.10
2014,04,13,00,25,14.10
2014,04,13,00,26,14.00
2014,04,13,00,27,14.00
2014,04,13,00,28,13.80
2014,04,13,00,29,13.50
2014,04,13,00,30,13.30
2014,04,13,00,31,13.20
2014,04,13,00,32,13.10
2014,04,13,00,33,13.00
2014,04,13,00,34,12.90
2014,04,13,00,35,12.80
2014,04,13,00,36,12.80
2014,04,13,00,37,12.80
2014,04,13,00,38,12.70
2014,04,13,00,39,12.60
2014,04,13,00,40,12.50
2014,04,13,00,41,12.40
2014,04,13,00,42,12.30
2014,04,13,00,43,12.20
2014,04,13,00,44,12.00
2014,04,13,00,45,11.90
2014,04,13,00,46,11.70
2014,04,13,00,47,11.60
2014,04,13,00,48,11.50
2014,04,13,00,49,11.40
2014,04,13,00,50,11.30
2014,04,13,00,51,11.10
2014,04,13,00,52,11.00
2014,04,13,00,53,10.90
2014,04,13,00,54,10.80
2014,04,13,00,55,10.70
2014,04,13,00,56,10.70
2014,04,13,00,57,10.60
2014,04,13,00,58,10.50
2014,04,13,00,59,10.50
2014,04,13,01,00,10.40
2014,04,13,01,01,10.40
2014,04,13,01,02,10.30
2014,04,13,01,03,10.30
2014,04,13,01,04,10.20
2014,04,13,01,05,10.20
2014,04,13,01,06,10.20
2014,04,13,01,07,10.10
2014,04,13,01,08,10.10
2014,04,13,01,09,10.10
2014,04,13,01,10,10.10
2014,04,13,01,11,10.10
2014,04,13,01,12,10.10
2014,04,13,01,13,10.00
2014,04,13,01,14,10.00
2014,04,13,01,15,10.00
2014,04,13,01,16,10.00
2014,04,13,01,17,10.00
2014,04,13,01,18,10.00
2014,04,13,01,19,9.90
2014,04,13,01,20,9.90
2014,04,13,01,21,9.90
2014,04,13,01,22,9.80
2014,04,13,01,23,9.80
2014,04,13,01,24,9.80
2014,04,13,01,25,9.80
2014,04,13,01,26,9.80
2014,04,13,01,27,9.80
2014,04,13,01,28,9.80
2014,04,13,01,29,9.80
2014,04,13,01,30,9.80
2014,04,13,01,31,9.90
2014,04,13,01,32,9.90
2014,04,13,01,33,10.00
2014,04,13,01,34,10.10
2014,04,13,01,35,10.20
2014,04,13,01,36,10.30
2014,04,13,01,37,10.30
2014,04,13,01,38,10.40
2014,04,13,01,39,10.40
2014,04,13,01,40,10.50
2014,04,13,01,41,10.50
2014,04,13,01,42,10.50
2014,04,13,01,43,10.40
2014,04,13,01,44,10.20
2014,04,13,01,45,9.90
2014,04,13,01,46,9.80
2014,04,13,01,47,9.70
2014,04,13,01,48,9.60
2014,04,13,01,49,9.60
2014,04,13,01,50,9.60
2014,04,13,01,51,9.60
2014,04,13,01,52,9.60
2014,04,13,01,53,9.60
2014,04,13,01,54,9.60
2014,04,13,01,55,9.60
2014,04,13,01,56,9.60
2014,04,13,01,57,9.70
2014,04,13,01,58,9.70
2014,04,13,01,59,9.80
2014,04,13,02,00,9.80
2014,04,13,02,01,9.80
2014,04,13,02,02,9.80
2014,04,13,02,03,9.80
2014,04,13,02,04,9.80
2014,04,13,02,05,9.80
2014,04,13,02,06,9.90
2014,04,13,02,07,10.00
2014,04,13,02,08,10.10
2014,04,13,02,09,10.20
2014,04,13,02,10,10.20
2014,04,13,02,11,10.20
2014,04,13,02,12,10.30
2014,04,13,02,13,10.30
2014,04,13,02,14,10.40
2014,04,13,02,15,10.60
2014,04,13,02,16,10.70
2014,04,13,02,17,10.80
2014,04,13,02,18,10.90
2014,04,13,02,19,11.00
2014,04,13,02,20,11.10
2014,04,13,02,21,11.20
2014,04,13,02,22,11.20
2014,04,13,02,23,11.20
2014,04,13,02,24,11.30
2014,04,13,02,25,11.30
2014,04,13,02,26,11.30
2014,04,13,02,27,11.40
2014,04,13,02,28,11.40
2014,04,13,02,29,11.50
2014,04,13,02,30,11.50
2014,04,13,02,31,11.60
2014,04,13,02,32,11.60
2014,04,13,02,33,11.60
2014,04,13,02,34,11.60
2014,04,13,02,35,11.60
2014,04,13,02,36,11.60
2014,04,13,02,37,11.60
2014,04,13,02,38,11.50
2014,04,13,02,39,11.20
2014,04,13,02,40,10.90
2014,04,13,02,41,10.60
2014,04,13,02,42,10.30
2014,04,13,02,43,10.10
2014,04,13,02,44,9.90
2014,04,13,02,45,9.60
2014,04,13,02,46,9.40
2014,04,13,02,47,9.10
2014,04,13,02,48,8.80
2014,04,13,02,49,8.60
2014,04,13,02,50,8.50
2014,04,13,02,51,8.30
2014,04,13,02,52,8.30
2014,04,13,02,53,8.20
2014,04,13,02,54,8.10
2014,04,13,02,55,8.00
2014,04,13,02,56,7.90
2014,04,13,02,57,7.80
2014,04,13,02,58,7.70
2014,04,13,02,59,7.60
2014,04,13,03,00,7.40
2014,04,13,03,01,7.30
2014,04,13,03,02,7.20
2014,04,13,03,03,7.20
2014,04,13,03,04,7.10
2014,04,13,03,05,7.00
2014,04,13,03,06,7.00
2014,04,13,03,07,6.90
2014,04,13,03,08,6.90
2014,04,13,03,09,6.90
2014,04,13,03,10,7.00
2014,04,13,03,11,7.10
2014,04,13,03,12,7.20
2014,04,13,03,13,7.20
2014,04,13,03,14,7.30
2014,04,13,03,15,7.30
2014,04,13,03,16,7.40
2014,04,13,03,17,7.60
2014,04,13,03,18,7.70
2014,04,13,03,19,7.80
2014,04,13,03,20,7.90
2014,04,13,03,21,8.00
2014,04,13,03,22,8.10
2014,04,13,03,23,8.10
2014,04,13,03,24,8.10
2014,04,13,03,25,8.20
2014,04,13,03,26,8.20
2014,04,13,03,27,8.30
2014,04,13,03,28,8.30
2014,04,13,03,29,8.40
2014,04,13,03,30,8.50
2014,04,13,03,31,8.50
2014,04,13,03,32,8.60
2014,04,13,03,33,8.60
2014,04,13,03,34,8.70
2014,04,13,03,35,8.70
2014,04,13,03,36,8.80
2014,04,13,03,37,8.80
2014,04,13,03,38,8.80
2014,04,13,03,39,8.90
2014,04,13,03,40,8.90
2014,04,13,03,41,9.00
2014,04,13,03,42,9.10
2014,04,13,03,43,9.10
2014,04,13,03,44,9.10
2014,04,13,03,45,9.20
2014,04,13,03,46,9.20
2014,04,13,03,47,9.20
2014,04,13,03,48,9.30
2014,04,13,03,49,9.30
2014,04,13,03,50,9.30
2014,04,13,03,51,9.40
2014,04,13,03,52,9.40
2014,04,13,03,53,9.50
2014,04,13,03,54,9.50
2014,04,13,03,55,9.50
2014,04,13,03,56,9.50
2014,04,13,03,57,9.50
2014,04,13,03,58,9.50
2014,04,13,03,59,9.50
2014,04,13,04,00,9.50
2014,04,13,04,01,9.50
2014,04,13,04,02,9.50
2014,04,13,04,03,9.50
2014,04,13,04,04,9.60
2014,04,13,04,05,9.60
2014,04,13,04,06,9.60
2014,04,13,04,07,9.60
2014,04,13,04,08,9.60
2014,04,13,04,09,9.60
2014,04,13,04,10,9.70
2014,04,13,04,11,9.70
2014,04,13,04,12,9.70
2014,04,13,04,13,9.70
2014,04,13,04,14,9.70
2014,04,13,04,15,9.70
2014,04,13,04,16,9.70
2014,04,13,04,17,9.70
2014,04,13,04,18,9.70
2014,04,13,04,19,9.70
2014,04,13,04,20,9.70
2014,04,13,04,21,9.70
2014,04,13,04,22,9.70
2014,04,13,04,23,9.70
2014,04,13,04,24,9.70
2014,04,13,04,25,9.70
2014,04,13,04,26,9.70
2014,04,13,04,27,9.70
2014,04,13,04,28,9.80
2014,04,13,04,29,9.80
2014,04,13,04,30,9.80
2014,04,13,04,31,9.80
2014,04,13,04,32,9.80
2014,04,13,04,33,9.80
2014,04,13,04,34,9.70
2014,04,13,04,35,9.70
2014,04,13,04,36,9.70
2014,04,13,04,37,9.70
2014,04,13,04,38,9.60
2014,04,13,04,39,9.60
2014,04,13,04,40,9.60
2014,04,13,04,41,9.60
2014,04,13,04,42,9.60
2014,04,13,04,43,9.60
2014,04,13,04,44,9.60
2014,04,13,04,45,9.50
2014,04,13,04,46,9.40
2014,04,13,04,47,9.40
2014,04,13,04,48,9.50
2014,04,13,04,49,9.50
2014,04,13,04,50,9.60
2014,04,13,04,51,9.60
2014,04,13,04,52,9.60
2014,04,13,04,53,9.60
2014,04,13,04,54,9.60
2014,04,13,04,55,9.60
2014,04,13,04,56,9.60
2014,04,13,04,57,9.60
2014,04,13,04,58,9.60
2014,04,13,04,59,9.60
2014,04,13,05,00,9.60
2014,04,13,05,01,9.60
2014,04,13,05,02,9.70
2014,04,13,05,03,9.70
2014,04,13,05,04,9.70
2014,04,13,05,05,9.80
2014,04,13,05,06,9.80
2014,04,13,05,07,9.80
2014,04,13,05,08,9.80
2014,04,13,05,09,9.80
2014,04,13,05,10,9.80
2014,04,13,05,11,9.80
2014,04,13,05,12,9.80
2014,04,13,05,13,9.80
2014,04,13,05,14,9.80
2014,04,13,05,15,9.80
2014,04,13,05,16,9.70
2014,04,13,05,17,9.70
2014,04,13,05,18,9.70
2014,04,13,05,19,9.70
2014,04,13,05,20,9.60
2014,04,13,05,21,9.60
2014,04,13,05,22,9.60
2014,04,13,05,23,9.60
2014,04,13,05,24,9.60
2014,04,13,05,25,9.60
2014,04,13,05,26,9.60
2014,04,13,05,27,9.60
2014,04,13,05,28,9.60
2014,04,13,05,29,9.60
2014,04,13,05,30,9.60
2014,04,13,05,31,9.60
2014,04,13,05,32,9.60
2014,04,13,05,33,9.60
2014,04,13,05,34,9.60
2014,04,13,05,35,9.60
2014,04,13,05,36,9.50
2014,04,13,05,37,9.50
2014,04,13,05,38,9.50
2014,04,13,05,39,9.40
2014,04,13,05,40,9.40
2014,04,13,05,41,9.40
2014,04,13,05,42,9.40
2014,04,13,05,43,9.40
2014,04,13,05,44,9.40
2014,04,13,05,45,9.40
2014,04,13,05,46,9.40
2014,04,13,05,47,9.40
2014,04,13,05,48,9.50
2014,04,13,05,49,9.50
2014,04,13,05,50,9.60
2014,04,13,05,51,9.60
2014,04,13,05,52,9.60
2014,04,13,05,53,9.60
2014,04,13,05,54,9.60
2014,04,13,05,55,9.60
2014,04,13,05,56,9.60
2014,04,13,05,57,9.50
2014,04,13,05,58,9.50
2014,04,13,05,59,9.50
2014,04,13,06,00,9.50
2014,04,13,06,01,9.40
2014,04,13,06,02,9.40
2014,04,13,06,03,9.40
2014,04,13,06,04,9.30
2014,04,13,06,05,9.30
2014,04,13,06,06,9.30
2014,04,13,06,07,9.20
2014,04,13,06,08,9.20
2014,04,13,06,09,9.10
2014,04,13,06,10,9.10
2014,04,13,06,11,9.10
2014,04,13,06,12,9.00
2014,04,13,06,13,9.00
2014,04,13,06,14,8.90
2014,04,13,06,15,8.90
2014,04,13,06,16,8.90
2014,04,13,06,17,8.90
2014,04,13,06,18,8.90
2014,04,13,06,19,8.80
2014,04,13,06,20,8.80
2014,04,13,06,21,8.80
2014,04,13,06,22,8.80
2014,04,13,06,23,8.80
2014,04,13,06,24,8.80
2014,04,13,06,25,8.80
2014,04,13,06,26,8.80
2014,04,13,06,27,8.80
2014,04,13,06,28,8.80
2014,04,13,06,29,8.80
2014,04,13,06,30,8.80
2014,04,13,06,31,8.80
2014,04,13,06,32,8.80
2014,04,13,06,33,8.80
2014,04,13,06,34,8.80
2014,04,13,06,35,8.80
2014,04,13,06,36,8.80
2014,04,13,06,37,8.80
2014,04,13,06,38,8.80
2014,04,13,06,39,8.80
2014,04,13,06,40,8.80
2014,04,13,06,41,8.80
2014,04,13,06,42,8.80
2014,04,13,06,43,8.80
2014,04,13,06,44,8.80
2014,04,13,06,45,8.80
2014,04,13,06,46,8.80
2014,04,13,06,47,8.80
2014,04,13,06,48,8.80
2014,04,13,06,49,8.80
2014,04,13,06,50,8.90
2014,04,13,06,51,8.90
2014,04,13,06,52,8.90
2014,04,13,06,53,8.90
2014,04,13,06,54,8.90
2014,04,13,06,55,9.00
2014,04,13,06,56,9.00
2014,04,13,06,57,9.00
2014,04,13,06,58,9.10
2014,04,13,06,59,9.10
2014,04,13,07,00,9.10
2014,04,13,07,01,9.10
2014,04,13,07,02,9.10
2014,04,13,07,03,9.10
2014,04,13,07,04,9.10
2014,04,13,07,05,9.10
2014,04,13,07,06,9.20
2014,04,13,07,07,9.20
2014,04,13,07,08,9.20
2014,04,13,07,09,9.20
2014,04,13,07,10,9.20
2014,04,13,07,11,9.20
2014,04,13,07,12,9.30
2014,04,13,07,13,9.30
2014,04,13,07,14,9.30
2014,04,13,07,15,9.40
2014,04,13,07,16,9.40
2014,04,13,07,17,9.50
2014,04,13,07,18,9.50
2014,04,13,07,19,9.60
2014,04,13,07,20,9.50
2014,04,13,07,21,9.40
2014,04,13,07,22,9.20
2014,04,13,07,23,9.10
2014,04,13,07,24,9.10
2014,04,13,07,25,9.00
2014,04,13,07,26,9.00
2014,04,13,07,27,9.00
2014,04,13,07,28,9.00
2014,04,13,07,29,9.00
2014,04,13,07,30,9.10
2014,04,13,07,31,9.10
2014,04,13,07,32,9.20
2014,04,13,07,33,9.30
2014,04,13,07,34,9.30
2014,04,13,07,35,9.40
2014,04,13,07,36,9.50
2014,04,13,07,37,9.60
2014,04,13,07,38,9.70
2014,04,13,07,39,9.90
2014,04,13,07,40,10.00
2014,04,13,07,41,10.10
2014,04,13,07,42,10.20
2014,04,13,07,43,10.30
2014,04,13,07,44,10.40
2014,04,13,07,45,10.50
2014,04,13,07,46,10.60
2014,04,13,07,47,10.60
2014,04,13,07,48,10.70
2014,04,13,07,49,10.70
2014,04,13,07,50,10.80
2014,04,13,07,51,10.90
2014,04,13,07,52,10.90
2014,04,13,07,53,11.00
2014,04,13,07,54,11.00
2014,04,13,07,55,11.00
2014,04,13,07,56,11.10
2014,04,13,07,57,11.10
2014,04,13,07,58,11.20
2014,04,13,07,59,11.20
2014,04,13,08,00,11.30
2014,04,13,08,01,11.30
2014,04,13,08,02,11.40
2014,04,13,08,03,11.40
2014,04,13,08,04,11.50
2014,04,13,08,05,11.60
2014,04,13,08,06,11.70
2014,04,13,08,07,11.70
2014,04,13,08,08,11.80
2014,04,13,08,09,11.80
2014,04,13,08,10,11.90
2014,04,13,08,11,11.90
2014,04,13,08,12,11.90
2014,04,13,08,13,11.90
2014,04,13,08,14,11.80
2014,04,13,08,15,11.80
2014,04,13,08,16,11.80
2014,04,13,08,17,11.80
2014,04,13,08,18,11.80
2014,04,13,08,19,11.80
2014,04,13,08,20,11.80
2014,04,13,08,21,11.80
2014,04,13,08,22,11.80
2014,04,13,08,23,11.80
2014,04,13,08,24,11.70
2014,04,13,08,25,11.70
2014,04,13,08,26,11.60
2014,04,13,08,27,11.60
2014,04,13,08,28,11.60
2014,04,13,08,29,11.60
2014,04,13,08,30,11.50
2014,04,13,08,31,11.50
2014,04,13,08,32,11.40
2014,04,13,08,33,11.40
2014,04,13,08,34,11.40
2014,04,13,08,35,11.40
2014,04,13,08,36,11.50
2014,04,13,08,37,11.50
2014,04,13,08,38,11.60
2014,04,13,08,39,11.60
2014,04,13,08,40,11.60
2014,04,13,08,41,11.60
2014,04,13,08,42,11.70
2014,04,13,08,43,11.70
2014,04,13,08,44,11.60
2014,04,13,08,45,11.60
2014,04,13,08,46,11.60
2014,04,13,08,47,11.60
2014,04,13,08,48,11.60
2014,04,13,08,49,11.50
2014,04,13,08,50,11.50
2014,04,13,08,51,11.40
2014,04,13,08,52,11.50
2014,04,13,08,53,11.50
2014,04,13,08,54,11.50
2014,04,13,08,55,11.50
2014,04,13,08,56,11.40
2014,04,13,08,57,11.30
2014,04,13,08,58,11.30
2014,04,13,08,59,11.40
2014,04,13,09,00,11.40
2014,04,13,09,01,11.50
2014,04,13,09,02,11.60
2014,04,13,09,03,11.70
2014,04,13,09,04,11.70
2014,04,13,09,05,11.70
2014,04,13,09,06,11.60
2014,04,13,09,07,11.60
2014,04,13,09,08,11.50
2014,04,13,09,09,11.40
2014,04,13,09,10,11.30
2014,04,13,09,11,11.30
2014,04,13,09,12,11.30
2014,04,13,09,13,11.30
2014,04,13,09,14,11.20
2014,04,13,09,15,11.10
2014,04,13,09,16,11.10
2014,04,13,09,17,11.10
2014,04,13,09,18,11.10
2014,04,13,09,19,11.20
2014,04,13,09,20,11.10
2014,04,13,09,21,11.00
2014,04,13,09,22,11.00
2014,04,13,09,23,10.90
2014,04,13,09,24,10.90
2014,04,13,09,25,10.90
2014,04,13,09,26,11.00
2014,04,13,09,27,11.10
2014,04,13,09,28,11.00
2014,04,13,09,29,10.90
2014,04,13,09,30,10.90
2014,04,13,09,31,10.80
2014,04,13,09,32,10.80
2014,04,13,09,33,10.80
2014,04,13,09,34,10.80
2014,04,13,09,35,10.80
2014,04,13,09,36,10.80
2014,04,13,09,37,10.80
2014,04,13,09,38,10.90
2014,04,13,09,39,11.00
2014,04,13,09,40,11.10
2014,04,13,09,41,11.20
2014,04,13,09,42,11.30
2014,04,13,09,43,11.30
2014,04,13,09,44,11.40
2014,04,13,09,45,11.40
2014,04,13,09,46,11.50
2014,04,13,09,47,11.50
2014,04,13,09,48,11.60
2014,04,13,09,49,11.70
2014,04,13,09,50,11.70
2014,04,13,09,51,11.70
2014,04,13,09,52,11.70
2014,04,13,09,53,11.70
2014,04,13,09,54,11.80
2014,04,13,09,55,11.80
2014,04,13,09,56,11.80
2014,04,13,09,57,11.70
2014,04,13,09,58,11.70
2014,04,13,09,59,11.70
2014,04,13,10,00,11.70
2014,04,13,10,01,11.70
2014,04,13,10,02,11.70
2014,04,13,10,03,11.80
2014,04,13,10,04,11.80
2014,04,13,10,05,11.70
2014,04,13,10,06,11.70
2014,04,13,10,07,11.80
2014,04,13,10,08,11.90
2014,04,13,10,09,12.00
2014,04,13,10,10,12.10
2014,04,13,10,11,12.00
2014,04,13,10,12,11.90
2014,04,13,10,13,11.80
2014,04,13,10,14,11.80
2014,04,13,10,15,11.80
2014,04,13,10,16,11.70
2014,04,13,10,17,11.80
2014,04,13,10,18,11.80
2014,04,13,10,19,11.90
2014,04,13,10,20,11.90
2014,04,13,10,21,12.00
2014,04,13,10,22,12.10
2014,04,13,10,23,12.10
2014,04,13,10,24,12.10
2014,04,13,10,25,12.20
2014,04,13,10,26,12.20
2014,04,13,10,27,12.30
2014,04,13,10,28,12.30
2014,04,13,10,29,12.40
2014,04,13,10,30,12.40
2014,04,13,10,31,12.50
2014,04,13,10,32,12.50
2014,04,13,10,33,12.50
2014,04,13,10,34,12.60
2014,04,13,10,35,12.70
2014,04,13,10,36,12.80
2014,04,13,10,37,12.80
2014,04,13,10,38,12.90
2014,04,13,10,39,12.90
2014,04,13,10,40,12.90
2014,04,13,10,41,12.80
2014,04,13,10,42,12.80
2014,04,13,10,43,12.80
2014,04,13,10,44,12.80
2014,04,13,10,45,12.80
2014,04,13,10,46,12.80
2014,04,13,10,47,12.80
2014,04,13,10,48,12.80
2014,04,13,10,49,12.80
2014,04,13,10,50,12.80
2014,04,13,10,51,12.80
2014,04,13,10,52,12.90
2014,04,13,10,53,12.90
2014,04,13,10,54,12.90
2014,04,13,10,55,12.90
2014,04,13,10,56,12.90
2014,04,13,10,57,12.80
2014,04,13,10,58,12.80
2014,04,13,10,59,12.90
2014,04,13,11,00,13.00
2014,04,13,11,01,13.10
2014,04,13,11,02,13.20
2014,04,13,11,03,13.20
2014,04,13,11,04,13.20
2014,04,13,11,05,13.20
2014,04,13,11,06,13.20
2014,04,13,11,07,13.20
2014,04,13,11,08,13.20
2014,04,13,11,09,13.30
2014,04,13,11,10,13.50
2014,04,13,11,11,13.50
2014,04,13,11,12,13.40
2014,04,13,11,13,13.40
2014,04,13,11,14,13.30
2014,04,13,11,15,13.30
2014,04,13,11,16,13.30
2014,04,13,11,17,13.30
2014,04,13,11,18,13.30
2014,04,13,11,19,13.40
2014,04,13,11,20,13.40
2014,04,13,11,21,13.40
2014,04,13,11,22,13.40
2014,04,13,11,23,13.50
2014,04,13,11,24,13.50
2014,04,13,11,25,13.60
2014,04,13,11,26,13.60
2014,04,13,11,27,13.70
2014,04,13,11,28,13.70
2014,04,13,11,29,13.70
2014,04,13,11,30,13.70
2014,04,13,11,31,13.70
2014,04,13,11,32,13.70
2014,04,13,11,33,13.70
2014,04,13,11,34,13.70
2014,04,13,11,35,13.80
2014,04,13,11,36,13.90
2014,04,13,11,37,14.00
2014,04,13,11,38,13.90
2014,04,13,11,39,13.90
2014,04,13,11,40,13.80
2014,04,13,11,41,13.70
2014,04,13,11,42,13.70
2014,04,13,11,43,13.80
2014,04,13,11,44,13.70
2014,04,13,11,45,13.70
2014,04,13,11,46,13.70
2014,04,13,11,47,13.80
2014,04,13,11,48,13.80
2014,04,13,11,49,13.90
2014,04,13,11,50,13.90
2014,04,13,11,51,14.00
2014,04,13,11,52,14.00
2014,04,13,11,53,14.10
2014,04,13,11,54,14.10
2014,04,13,11,55,14.10
2014,04,13,11,56,14.00
2014,04,13,11,57,14.10
2014,04,13,11,58,14.20
2014,04,13,11,59,14.10
2014,04,13,12,00,14.00
2014,04,13,12,01,13.90
2014,04,13,12,02,13.90
2014,04,13,12,03,13.90
2014,04,13,12,04,14.00
2014,04,13,12,05,14.20
2014,04,13,12,06,14.30
2014,04,13,12,07,14.30
2014,04,13,12,08,14.20
2014,04,13,12,09,14.20
2014,04,13,12,10,14.20
2014,04,13,12,11,14.30
2014,04,13,12,12,14.20
2014,04,13,12,13,14.10
2014,04,13,12,14,14.10
2014,04,13,12,15,14.10
2014,04,13,12,16,14.20
2014,04,13,12,17,14.20
2014,04,13,12,18,14.10
2014,04,13,12,19,14.20
2014,04,13,12,20,14.30
2014,04,13,12,21,14.40
2014,04,13,12,22,14.50
2014,04,13,12,23,14.60
2014,04,13,12,24,14.80
2014,04,13,12,25,14.90
2014,04,13,12,26,15.00
2014,04,13,12,27,15.00
2014,04,13,12,28,15.00
2014,04,13,12,29,14.90
2014,04,13,12,30,14.70
2014,04,13,12,31,14.70
2014,04,13,12,32,14.80
2014,04,13,12,33,14.80
2014,04,13,12,34,15.00
2014,04,13,12,35,15.00
2014,04,13,12,36,15.00
2014,04,13,12,37,15.00
2014,04,13,12,38,15.00
2014,04,13,12,39,15.00
2014,04,13,12,40,15.00
2014,04,13,12,41,15.00
2014,04,13,12,42,15.00
2014,04,13,12,43,15.00
2014,04,13,12,44,15.00
2014,04,13,12,45,14.90
2014,04,13,12,46,14.80
2014,04,13,12,47,14.80
2014,04,13,12,48,14.80
2014,04,13,12,49,14.80
2014,04,13,12,50,14.90
2014,04,13,12,51,15.00
2014,04,13,12,52,15.00
2014,04,13,12,53,14.80
2014,04,13,12,54,14.70
2014,04,13,12,55,14.70
2014,04,13,12,56,14.60
2014,04,13,12,57,14.60
2014,04,13,12,58,14.60
2014,04,13,12,59,14.60
2014,04,13,13,00,14.60
2014,04,13,13,01,14.70
2014,04,13,13,02,14.80
2014,04,13,13,03,14.90
2014,04,13,13,04,14.90
2014,04,13,13,05,14.80
2014,04,13,13,06,14.90
2014,04,13,13,07,15.00
2014,04,13,13,08,15.00
2014,04,13,13,09,14.90
2014,04,13,13,10,14.90
2014,04,13,13,11,15.00
2014,04,13,13,12,15.00
2014,04,13,13,13,15.00
2014,04,13,13,14,15.00
2014,04,13,13,15,14.90
2014,04,13,13,16,14.70
2014,04,13,13,17,14.70
2014,04,13,13,18,14.60
2014,04,13,13,19,14.50
2014,04,13,13,20,14.50
2014,04,13,13,21,14.50
2014,04,13,13,22,14.60
2014,04,13,13,23,14.60
2014,04,13,13,24,14.60
2014,04,13,13,25,14.70
2014,04,13,13,26,14.60
2014,04,13,13,27,14.60
2014,04,13,13,28,14.60
2014,04,13,13,29,14.50
2014,04,13,13,30,14.40
2014,04,13,13,31,14.30
2014,04,13,13,32,14.20
2014,04,13,13,33,14.20
2014,04,13,13,34,14.10
2014,04,13,13,35,14.10
2014,04,13,13,36,14.10
2014,04,13,13,37,14.10
2014,04,13,13,38,14.10
2014,04,13,13,39,14.00
2014,04,13,13,40,14.00
2014,04,13,13,41,14.00
2014,04,13,13,42,14.00
2014,04,13,13,43,14.00
2014,04,13,13,44,14.10
2014,04,13,13,45,14.10
2014,04,13,13,46,14.10
2014,04,13,13,47,14.10
2014,04,13,13,48,14.10
2014,04,13,13,49,14.10
2014,04,13,13,50,14.00
2014,04,13,13,51,13.90
2014,04,13,13,52,13.90
2014,04,13,13,53,13.90
2014,04,13,13,54,14.00
2014,04,13,13,55,14.10
2014,04,13,13,56,14.10
2014,04,13,13,57,14.10
2014,04,13,13,58,14.20
2014,04,13,13,59,14.20
2014,04,13,14,00,14.20
2014,04,13,14,01,14.20
2014,04,13,14,02,14.20
2014,04,13,14,03,14.20
2014,04,13,14,04,14.20
2014,04,13,14,05,14.20
2014,04,13,14,06,14.30
2014,04,13,14,07,14.30
2014,04,13,14,08,14.40
2014,04,13,14,09,14.50
2014,04,13,14,10,14.60
2014,04,13,14,11,14.70
2014,04,13,14,12,14.80
2014,04,13,14,13,15.00
2014,04,13,14,14,15.00
2014,04,13,14,15,15.00
2014,04,13,14,16,15.00
2014,04,13,14,17,15.00
2014,04,13,14,18,15.00
2014,04,13,14,19,15.00
2014,04,13,14,20,15.00
2014,04,13,14,21,15.00
2014,04,13,14,22,15.00
2014,04,13,14,23,15.00
2014,04,13,14,24,15.00
2014,04,13,14,25,15.00
2014,04,13,14,26,15.00
2014,04,13,14,27,15.00
2014,04,13,14,28,15.00
2014,04,13,14,29,15.00
2014,04,13,14,30,15.00
2014,04,13,14,31,15.00
2014,04,13,14,32,15.10
2014,04,13,14,33,15.20
2014,04,13,14,34,15.30
2014,04,13,14,35,15.40
2014,04,13,14,36,15.50
2014,04,13,14,37,15.40
2014,04,13,14,38,15.40
2014,04,13,14,39,15.40
2014,04,13,14,40,15.40
2014,04,13,14,41,15.40
2014,04,13,14,42,15.50
2014,04,13,14,43,15.60
2014,04,13,14,44,15.60
2014,04,13,14,45,15.60
2014,04,13,14,46,15.60
2014,04,13,14,47,15.60
2014,04,13,14,48,15.60
2014,04,13,14,49,15.70
2014,04,13,14,50,15.80
2014,04,13,14,51,15.80
2014,04,13,14,52,15.80
2014,04,13,14,53,15.90
2014,04,13,14,54,15.80
2014,04,13,14,55,15.80
2014,04,13,14,56,15.80
2014,04,13,14,57,15.80
2014,04,13,14,58,15.80
2014,04,13,14,59,15.80
2014,04,13,15,00,15.70
2014,04,13,15,01,15.70
2014,04,13,15,02,15.70
2014,04,13,15,03,15.70
2014,04,13,15,04,15.70
2014,04,13,15,05,15.70
2014,04,13,15,06,15.70
2014,04,13,15,07,15.80
2014,04,13,15,08,15.80
2014,04,13,15,09,15.80
2014,04,13,15,10,15.80
2014,04,13,15,11,15.80
2014,04,13,15,12,15.90
2014,04,13,15,13,16.00
2014,04,13,15,14,15.90
2014,04,13,15,15,15.90
2014,04,13,15,16,16.00
2014,04,13,15,17,16.00
2014,04,13,15,18,16.00
2014,04,13,15,19,16.00
2014,04,13,15,20,16.10
2014,04,13,15,21,16.10
2014,04,13,15,22,16.20
2014,04,13,15,23,16.20
2014,04,13,15,24,16.20
2014,04,13,15,25,16.10
2014,04,13,15,26,16.10
2014,04,13,15,27,16.10
2014,04,13,15,28,16.20
2014,04,13,15,29,16.10
2014,04,13,15,30,16.10
2014,04,13,15,31,16.20
2014,04,13,15,32,16.20
2014,04,13,15,33,16.30
2014,04,13,15,34,16.30
2014,04,13,15,35,16.30
2014,04,13,15,36,16.30
2014,04,13,15,37,16.30
2014,04,13,15,38,16.20
2014,04,13,15,39,16.20
2014,04,13,15,40,16.20
2014,04,13,15,41,16.20
2014,04,13,15,42,16.30
2014,04,13,15,43,16.40
2014,04,13,15,44,16.30
2014,04,13,15,45,16.40
2014,04,13,15,46,16.50
2014,04,13,15,47,16.60
2014,04,13,15,48,16.60
2014,04,13,15,49,16.50
2014,04,13,15,50,16.40
2014,04,13,15,51,16.30
2014,04,13,15,52,16.30
2014,04,13,15,53,16.30
2014,04,13,15,54,16.30
2014,04,13,15,55,16.20
2014,04,13,15,56,16.30
2014,04,13,15,57,16.30
2014,04,13,15,58,16.30
2014,04,13,15,59,16.40
2014,04,13,16,00,16.40
2014,04,13,16,01,16.40
2014,04,13,16,02,16.40
2014,04,13,16,03,16.50
2014,04,13,16,04,16.50
2014,04,13,16,05,16.60
2014,04,13,16,06,16.60
2014,04,13,16,07,16.70
2014,04,13,16,08,16.80
2014,04,13,16,09,16.80
2014,04,13,16,10,16.80
2014,04,13,16,11,16.80
2014,04,13,16,12,16.80
2014,04,13,16,13,16.80
2014,04,13,16,14,16.80
2014,04,13,16,15,16.80
2014,04,13,16,16,16.70
2014,04,13,16,17,16.70
2014,04,13,16,18,16.70
2014,04,13,16,19,16.60
2014,04,13,16,20,16.60
2014,04,13,16,21,16.60
2014,04,13,16,22,16.60
2014,04,13,16,23,16.70
2014,04,13,16,24,16.60
2014,04,13,16,25,16.60
2014,04,13,16,26,16.60
2014,04,13,16,27,16.60
2014,04,13,16,28,16.60
2014,04,13,16,29,16.60
2014,04,13,16,30,16.60
2014,04,13,16,31,16.50
2014,04,13,16,32,16.50
2014,04,13,16,33,16.50
2014,04,13,16,34,16.50
2014,04,13,16,35,16.50
2014,04,13,16,36,16.50
2014,04,13,16,37,16.60
2014,04,13,16,38,16.60
2014,04,13,16,39,16.50
2014,04,13,16,40,16.60
2014,04,13,16,41,16.60
2014,04,13,16,42,16.70
2014,04,13,16,43,16.70
2014,04,13,16,44,16.70
2014,04,13,16,45,16.60
2014,04,13,16,46,16.60
2014,04,13,16,47,16.50
2014,04,13,16,48,16.40
2014,04,13,16,49,16.40
2014,04,13,16,50,16.40
2014,04,13,16,51,16.40
2014,04,13,16,52,16.40
2014,04,13,16,53,16.40
2014,04,13,16,54,16.40
2014,04,13,16,55,16.40
2014,04,13,16,56,16.40
2014,04,13,16,57,16.40
2014,04,13,16,58,16.40
2014,04,13,16,59,16.40
2014,04,13,17,00,16.40
2014,04,13,17,01,16.40
2014,04,13,17,02,16.40
2014,04,13,17,03,16.50
2014,04,13,17,04,16.50
2014,04,13,17,05,16.50
2014,04,13,17,06,16.50
2014,04,13,17,07,16.40
2014,04,13,17,08,16.40
2014,04,13,17,09,16.40
2014,04,13,17,10,16.30
2014,04,13,17,11,16.30
2014,04,13,17,12,16.20
2014,04,13,17,13,16.20
2014,04,13,17,14,16.20
2014,04,13,17,15,16.20
2014,04,13,17,16,16.30
2014,04,13,17,17,16.30
2014,04,13,17,18,16.30
2014,04,13,17,19,16.40
2014,04,13,17,20,16.40
2014,04,13,17,21,16.40
2014,04,13,17,22,16.40
2014,04,13,17,23,16.40
2014,04,13,17,24,16.40
2014,04,13,17,25,16.40
2014,04,13,17,26,16.40
2014,04,13,17,27,16.40
2014,04,13,17,28,16.50
2014,04,13,17,29,16.50
2014,04,13,17,30,16.50
2014,04,13,17,31,16.60
2014,04,13,17,32,16.60
2014,04,13,17,33,16.60
2014,04,13,17,34,16.70
2014,04,13,17,35,16.70